[[{"header":{"parameterUnit":"m.s-1","parameterCategory":1,"la1":30.2991,"la2":30.254,"lo1":-89.0895,"lo2":-89.0444,"dy":0.0017,"dx":0.0017,"nx":28,"ny":28,"refTime":"2024-05-21T03:00:00:Z","depth":0,"parameterNumber":2,"parameterNumberName":"U-component_of_WINDS"},"data":[0,0,0,0,0,0,0,0,0,0,0,0,0,0,0,0,0,0,0,0,0,0,0,0,0,0,0,0,0,0,0,0,0,0,0,0,0,0,0,0,0,0,0,0,0,0,0,0,0,0,0,0,0,0,0,0,0,0,-3.3912,-3.3914,0,-3.4029,-3.4031,-3.4032,-3.3999,-3.3997,-3.3995,-3.3992,-3.4114,-3.412,-3.4125,0,0,0,0,0,0,0,0,0,0,0,0,0,-3.3663,-3.3667,-3.3912,-3.3914,-3.3915,-3.4029,-3.4031,-3.4032,-3.4,-3.3997,-3.3994,-3.3991,-3.4112,-3.4119,-3.4125,0,0,0,0,0,0,0,0,0,0,0,0,0,-3.3775,-3.3669,-3.3912,-3.3913,-3.3914,-3.4029,-3.4031,-3.4033,-3.4,-3.3997,-3.3993,-3.399,-3.411,-3.4118,-3.4126,-3.4249,0,0,-3.4151,-3.4155,0,0,0,0,0,0,0,0,-3.3768,-3.3784,-3.3911,-3.3913,-3.3914,-3.3996,-3.3988,-3.4105,-3.4001,-3.3968,-3.3992,-3.3988,-3.4078,-3.4089,-3.4118,-3.4254,-3.426,-3.4152,-3.4157,-3.4161,-3.4163,0,0,0,0,0,0,0,-3.3761,-3.3779,-3.3959,-3.3913,-3.3915,-3.3908,-3.392,-3.401,-3.4042,-3.397,-3.3968,-3.3982,-3.4078,-3.4111,-3.4121,-3.4261,-3.4152,-3.4159,-3.4164,-3.4167,-3.4503,-3.4507,0,0,0,0,0,0,-3.3751,-3.3772,-3.3955,-3.3962,-3.3831,-3.3915,-3.3928,-3.3973,-3.404,-3.4047,-3.3985,-3.398,-3.4098,-3.4112,-3.4125,-3.4272,-3.4161,-3.4168,-3.4173,-3.4499,-3.4504,-3.4509,0,0,0,0,0,0,-3.3746,-3.3768,-3.395,-3.3867,-3.3889,-3.3923,-3.3974,-3.3978,-3.401,-3.4052,-3.4057,-3.4012,-3.4096,-3.4114,-3.4218,-3.4276,-3.4172,-3.4179,-3.4495,-3.4501,-3.4506,-3.4567,0,0,0,0,0,0,-3.3739,-3.3766,-3.3812,-3.3868,-3.3894,-3.4041,-3.3978,-3.3983,-3.4024,-3.4019,-3.4079,-3.4085,-3.4095,-3.4206,-3.4226,-3.4285,-3.4186,-3.449,-3.4497,-3.4504,-3.456,-3.4574,-3.4587,0,0,0,0,0,-3.373,-3.3825,-3.3815,-3.3837,-3.3952,-3.4044,-3.4059,-3.4067,-3.4029,-3.4076,-3.4103,-3.4083,-3.4267,-3.4217,-3.4239,-3.4302,-3.4486,-3.4495,-3.4504,-3.4554,-3.4572,-3.4586,0,0,0,0,0,0,-3.3776,-3.3833,-3.3822,-3.3938,-3.3986,-3.4038,-3.4097,-3.4086,-3.4146,-3.4139,-3.4147,-3.4161,-3.4268,-3.4296,-3.4239,-3.4424,-3.4371,-3.4385,-3.4401,-3.4418,-3.4431,-3.4422,-3.4193,0,0,0,0,0,-3.38,-3.3869,-3.3915,-3.4013,-3.4038,-3.4064,-3.4104,-3.4106,-3.4157,-3.4177,-3.4212,-3.4263,-3.4331,-3.4377,-3.4443,-3.4565,-3.4577,-3.4619,-3.4632,-3.4643,-3.4654,-3.472,-3.4739,-3.4538,-3.4538,-3.4538,0,0,-3.385,-3.3889,-3.3932,-3.4023,-3.4061,-3.4132,-3.4081,-3.4159,-3.4212,-3.419,-3.4289,-3.4317,-3.4374,-3.4488,-3.4539,-3.4514,-3.4713,-3.4654,-3.4663,-3.4668,-3.4732,-3.4751,-3.4767,-3.4544,-3.4543,-3.4542,0,0,-3.3976,-3.4013,-3.4098,-3.4137,-3.4195,-3.4211,-3.4232,-3.4286,-3.4303,-3.4404,-3.4388,-3.4452,-3.4571,-3.4612,-3.4649,-3.4792,-3.4776,-3.4813,-3.4882,-3.4946,-3.4962,-3.4976,-3.5026,-3.5044,-3.4825,-3.4825,-3.4825,0,-3.403,-3.4136,-3.4143,-3.4223,-3.4263,-3.4246,-3.4332,-3.437,-3.4447,-3.4475,-3.4446,-3.4594,-3.4632,-3.4754,-3.4789,-3.482,-3.4843,-3.4805,-3.4959,-3.4974,-3.4987,-3.5034,-3.5053,-3.4829,-3.4829,-3.4828,-3.4828,0,-3.42,-3.4274,-3.4336,-3.441,-3.4457,-3.454,-3.456,-3.4608,-3.4607,-3.4627,-3.4729,-3.4774,-3.4848,-3.4878,-3.4878,-3.5001,-3.4983,-3.4957,-3.4903,-3.501,-3.5055,-3.5073,-3.4835,-3.4833,-3.4832,-3.4831,0,0,-3.4357,-3.4434,-3.4456,-3.4489,-3.4552,-3.461,-3.4692,-3.4764,-3.4804,-3.4859,-3.4928,-3.5029,-3.5005,-3.5046,-3.5051,-3.5108,-3.5217,-3.5074,-3.5076,-3.5098,-3.5354,-3.5372,-3.5393,-3.5208,-3.5211,-3.5214,-3.5349,0,-3.4488,-3.4631,-3.464,-3.477,-3.4838,-3.4823,-3.4895,-3.4942,-3.4963,-3.5025,-3.5049,-3.512,-3.5084,-3.5109,-3.5164,-3.5192,-3.5268,-3.5182,-3.5271,-3.5274,-3.5256,-3.5417,-3.5437,-3.5562,-3.5367,-3.537,-3.5372,0,-3.4659,-3.4717,-3.4853,-3.4906,-3.4935,-3.4999,-3.5066,-3.5126,-3.5179,-3.519,-3.5237,-3.5234,-3.5319,-3.5264,-3.5381,-3.5322,-3.5359,-3.5379,-3.5384,-3.5391,-3.5328,-3.5428,-3.5602,-3.5621,-3.54,-3.5398,-3.5396,0,-3.4758,-3.4871,-3.4967,-3.4996,-3.506,-3.5106,-3.5135,-3.5184,-3.5227,-3.5286,-3.5314,-3.5382,-3.5419,-3.5473,-3.5488,-3.5447,-3.5605,-3.5551,-3.5616,-3.5616,-3.5649,-3.5646,-3.583,-3.5676,-3.5675,-3.5675,-3.5675,0,-3.4902,-3.4986,-3.5012,-3.5071,-3.5165,-3.5175,-3.5268,-3.5294,-3.5339,-3.5403,-3.5395,-3.5456,-3.5473,-3.5537,-3.555,-3.5645,-3.5662,-3.5674,-3.5676,-3.5674,-3.5672,-3.5697,-3.5688,-3.568,-3.5679,-3.5678,-3.5677,0,-3.5028,-3.5049,-3.5152,-3.5205,-3.522,-3.5287,-3.5332,-3.5389,-3.541,-3.5491,-3.5511,-3.5544,-3.5619,-3.564,-3.573,-3.5739,-3.585,-3.5845,-3.5831,-3.5831,-3.5894,-3.5888,-3.61,-3.6128,-3.5956,-3.5958,-3.5959,0,-3.5117,-3.5181,-3.5241,-3.5283,-3.5313,-3.5382,-3.5425,-3.5438,-3.5484,-3.5549,-3.5599,-3.5672,-3.5732,-3.5853,-3.5885,-3.5954,-3.5949,-3.6019,-3.596,-3.5955,-3.5949,-3.5944,-3.595,-3.603,-3.6032,-3.6033,-3.6034,0,-3.5274,-3.5281,-3.5343,-3.541,-3.5461,-3.5514,-3.5565,-3.5601,-3.5621,-3.5673,-3.5749,-3.5796,-3.5887,-3.5961,-3.6031,-3.6061,-3.6052,-3.6053,-3.6072,-3.6069,-3.6058,-3.6064,-3.586,-3.6048,-3.6046,-3.6045,-3.6045,-3.6044,-3.5383,-3.5439,-3.5489,-3.5559,-3.5599,-3.5647,-3.5703,-3.573,-3.5794,-3.5869,-3.5873,-3.5956,-3.6008,-3.6101,-3.6135,-3.62,-3.618,-3.6207,-3.6214,-3.622,-3.6224,-3.6049,-3.6213,-3.6213,-3.6213,-3.6213,-3.6212,0,-3.5538,-3.557,-3.5634,-3.5705,-3.576,-3.5746,-3.5802,-3.5849,-3.5921,-3.597,-3.6029,-3.6116,-3.6188,-3.6226,-3.6297,-3.6341,-3.6339,-3.636,-3.6356,-3.6363,-3.6239,-3.6215,-3.6361,-3.636,-3.636,-3.636,-3.636,-3.636,-3.5625,-3.5718,-3.5732,-3.5845,-3.5877,-3.5957,-3.599,-3.6034,-3.6073,-3.6171,-3.623,-3.6254,-3.6299,-3.6373,-3.6438,-3.6447,-3.6473,-3.6496,-3.6503,-3.6387,-3.6372,-3.6357,-3.6335,-3.6502,-3.6502,-3.6621,-3.6622,-3.6623]},{"header":{"parameterUnit":"m.s-1","parameterCategory":1,"la1":30.2991,"la2":30.254,"lo1":-89.0895,"lo2":-89.0444,"dy":0.0017,"dx":0.0017,"nx":28,"ny":28,"refTime":"2024-05-21T03:00:00:Z","depth":0,"parameterNumber":3,"parameterNumberName":"V-component_of_WINDS"},"data":[0,0,0,0,0,0,0,0,0,0,0,0,0,0,0,0,0,0,0,0,0,0,0,0,0,0,0,0,0,0,0,0,0,0,0,0,0,0,0,0,0,0,0,0,0,0,0,0,0,0,0,0,0,0,0,0,0,0,1.3638,1.3638,0,1.362,1.3619,1.3619,1.358,1.3579,1.3578,1.3577,1.3559,1.3559,1.3559,0,0,0,0,0,0,0,0,0,0,0,0,0,1.3641,1.3641,1.3638,1.3638,1.3638,1.362,1.3619,1.3619,1.358,1.3579,1.3578,1.3577,1.3559,1.3559,1.3559,0,0,0,0,0,0,0,0,0,0,0,0,0,1.3633,1.3641,1.3638,1.3616,1.3614,1.362,1.3619,1.3619,1.358,1.3579,1.3578,1.3577,1.3558,1.3559,1.3559,1.3585,0,0,1.356,1.356,0,0,0,0,0,0,0,0,1.3633,1.3633,1.362,1.3618,1.3615,1.3601,1.3613,1.3608,1.358,1.3593,1.3577,1.3576,1.3574,1.3573,1.3572,1.3584,1.3583,1.356,1.356,1.3561,1.3561,0,0,0,0,0,0,0,1.3634,1.3633,1.3631,1.362,1.3617,1.3607,1.3605,1.3612,1.359,1.3592,1.3589,1.3587,1.3572,1.3572,1.3571,1.3583,1.356,1.3561,1.3561,1.3561,1.3617,1.3618,0,0,0,0,0,0,1.3638,1.3634,1.3632,1.363,1.3622,1.3608,1.3606,1.3607,1.359,1.3586,1.3588,1.3585,1.3572,1.3571,1.357,1.3599,1.3561,1.3561,1.3561,1.3615,1.3617,1.3618,0,0,0,0,0,0,1.3638,1.3638,1.3632,1.3632,1.363,1.361,1.3611,1.3607,1.3606,1.3587,1.3583,1.3592,1.3571,1.357,1.3582,1.3598,1.3561,1.3561,1.3614,1.3616,1.3617,1.3658,0,0,0,0,0,0,1.3638,1.3638,1.3648,1.3632,1.363,1.3644,1.3612,1.3607,1.3607,1.3603,1.3589,1.3586,1.357,1.3581,1.3582,1.3598,1.3562,1.3612,1.3615,1.3617,1.3655,1.3661,1.3666,0,0,0,0,0,1.3638,1.366,1.3648,1.3648,1.3641,1.3645,1.3644,1.3625,1.3608,1.3618,1.3606,1.3586,1.3597,1.3583,1.3583,1.36,1.3611,1.3614,1.3617,1.3653,1.366,1.3666,0,0,0,0,0,0,1.3677,1.3657,1.3644,1.3661,1.3655,1.3638,1.3649,1.3633,1.3631,1.3628,1.3604,1.3601,1.3617,1.361,1.3595,1.3624,1.3601,1.3604,1.3628,1.3635,1.364,1.3641,1.3562,0,0,0,0,0,1.3688,1.3692,1.3675,1.3691,1.3689,1.367,1.3671,1.3656,1.3649,1.3646,1.3635,1.3629,1.3631,1.3633,1.3633,1.3655,1.3651,1.3666,1.3672,1.3676,1.3679,1.3689,1.3696,1.3628,1.3627,1.3627,0,0,1.371,1.3699,1.3703,1.3699,1.3692,1.3698,1.3668,1.3674,1.3678,1.3647,1.3658,1.365,1.3642,1.3658,1.3665,1.3653,1.3697,1.368,1.3684,1.3683,1.3693,1.3699,1.3705,1.3629,1.3629,1.3629,0,0,1.3752,1.3745,1.3757,1.3752,1.3743,1.373,1.3734,1.372,1.3713,1.3723,1.3701,1.3705,1.3709,1.3704,1.3702,1.3744,1.3726,1.3745,1.3773,1.3784,1.3789,1.3794,1.3808,1.3813,1.3748,1.3748,1.3748,0,1.378,1.3786,1.3766,1.3774,1.3773,1.3746,1.3759,1.3755,1.3747,1.3747,1.3733,1.3738,1.373,1.3745,1.3756,1.3755,1.3758,1.3745,1.379,1.3794,1.3798,1.3812,1.3817,1.375,1.375,1.3749,1.3749,0,1.3821,1.3826,1.3838,1.383,1.3831,1.3841,1.3823,1.3826,1.3812,1.3801,1.3813,1.3803,1.3801,1.3804,1.3791,1.3818,1.381,1.3794,1.377,1.3807,1.3819,1.3825,1.3753,1.3752,1.3752,1.3751,0,0,1.3885,1.3867,1.3872,1.3868,1.3857,1.3861,1.3871,1.3869,1.3872,1.3868,1.3875,1.388,1.3865,1.3863,1.3849,1.3858,1.3892,1.3841,1.384,1.385,1.392,1.3932,1.3938,1.3881,1.3881,1.3882,1.3921,0,1.3923,1.3938,1.3921,1.394,1.3945,1.392,1.3929,1.3923,1.3914,1.3917,1.3906,1.391,1.389,1.3888,1.3897,1.3886,1.3905,1.3883,1.3887,1.3887,1.3888,1.3945,1.3957,1.3993,1.3925,1.3926,1.3927,0,1.3969,1.3968,1.3987,1.3975,1.3976,1.3984,1.3982,1.3985,1.3979,1.3971,1.3969,1.3953,1.3962,1.394,1.3953,1.3938,1.3939,1.3934,1.3935,1.3933,1.3908,1.3944,1.4005,1.401,1.3934,1.3934,1.3933,0,1.4013,1.4016,1.4028,1.4026,1.4012,1.4018,1.4013,1.4006,1.4006,1.4004,1.4004,1.4004,1.4003,1.4004,1.3988,1.3973,1.4002,1.3979,1.3996,1.3996,1.4002,1.4001,1.4063,1.4005,1.4005,1.4005,1.4004,0,1.4057,1.407,1.4047,1.4054,1.4068,1.4049,1.4063,1.4055,1.4049,1.4055,1.4034,1.404,1.4019,1.4023,1.4011,1.4023,1.4023,1.4017,1.4013,1.4018,1.4019,1.4017,1.4014,1.4006,1.4006,1.4005,1.4005,0,1.4107,1.4093,1.4104,1.4091,1.4088,1.4099,1.4087,1.4094,1.4084,1.4091,1.4092,1.4076,1.4079,1.4064,1.4065,1.4057,1.4075,1.4067,1.4077,1.4074,1.4092,1.409,1.4153,1.416,1.4099,1.4099,1.41,0,1.4135,1.4144,1.4133,1.4135,1.4131,1.4135,1.4135,1.4117,1.4119,1.4113,1.412,1.4122,1.4122,1.4129,1.4117,1.4118,1.411,1.4132,1.411,1.4114,1.4109,1.4108,1.4109,1.4136,1.4137,1.4138,1.4138,0,1.4186,1.4179,1.418,1.418,1.4181,1.418,1.4177,1.418,1.4161,1.4164,1.4167,1.4167,1.4168,1.417,1.4169,1.4164,1.4148,1.4146,1.415,1.4154,1.4158,1.4155,1.4088,1.4144,1.4143,1.4143,1.4143,1.4142,1.4226,1.4233,1.4226,1.4228,1.4224,1.4223,1.4228,1.4219,1.4221,1.422,1.421,1.4216,1.421,1.4206,1.4203,1.4207,1.4197,1.4202,1.4204,1.4205,1.4208,1.4159,1.4207,1.4207,1.4207,1.4207,1.4206,0,1.4275,1.427,1.4272,1.4269,1.4271,1.4257,1.4253,1.4256,1.4261,1.4257,1.4258,1.4262,1.4264,1.4254,1.4255,1.426,1.4253,1.4261,1.4259,1.4259,1.4218,1.4214,1.4267,1.4267,1.4267,1.4267,1.4267,1.4267,1.4301,1.4312,1.4304,1.4314,1.4308,1.4313,1.4312,1.4311,1.4307,1.4313,1.4315,1.4308,1.4301,1.4302,1.4303,1.43,1.4301,1.4311,1.4306,1.4267,1.4261,1.4256,1.4252,1.4312,1.4312,1.4346,1.4347,1.4347]}]]